  73P/Schwassmann Wachmann AA
T 2006 June  9.093 TT                                   MPC                     
q   0.93931              (2000.0)            P               Q                  
n   0.183890       Peri.  198.726        0.029084       +0.982225               
a   3.06265        Node    69.947        0.890039       +0.058991               
e   0.69330        Incl.   11.385        0.454956        0.178196               
P   5.36                                                                        
                                                                                
  73P/Schwassmann Wachmann AB
T 2006 June 8.693 TT                                    MPC                     
q   0.93880              (2000.0)            P               Q                  
n   0.184038       Peri.  198.851        0.028755       +0.982238               
a   3.06101        Node    69.844        0.889846       +0.059350               
e   0.69330        Incl.   11.392        0.455355        0.178007               
P   5.36                                                                        
                                                                                
  73P/Schwassmann Wachmann AC
T 2006 June 8.689 TT                                    MPC                     
q   0.93880              (2000.0)            P               Q                  
n   0.184039       Peri.  198.875        0.028619       +0.982240               
a   3.06099        Node    69.828        0.889808       +0.059490               
e   0.69330        Incl.   11.394        0.455437        0.177951               
P   5.36                                                                        
                                                                                
  73P/Schwassmann Wachmann AD
T 2006 June 8.694 TT                                    MPC                     
q   0.94167              (2000.0)            P               Q                  
n   0.183198       Peri.  198.119        0.031305       +0.982146               
a   3.07035        Node    70.416        0.890954       +0.056695               
e   0.69330        Incl.   11.355        0.453013        0.179374               
P   5.38                                                                        
                                                                                
  73P/Schwassmann Wachmann AE
T 2006 June 8.361 TT                                    MPC                     
q   0.93986              (2000.0)            P               Q                  
n   0.183729       Peri.  198.590        0.029704       +0.982204               
a   3.06444        Node    70.045        0.890241       +0.058371               
e   0.69330        Incl.   11.379        0.454521        0.178515               
P   5.36                                                                        
                                                                                
  73P/Schwassmann Wachmann AF
T 2006 June 6.842 TT                                    MPC                     
q   0.94144              (2000.0)            P               Q                  
n   0.183265       Peri.  198.217        0.031617       +0.982157               
a   3.06961        Node    70.302        0.890797       +0.056432               
e   0.69330        Incl.   11.356        0.453301        0.179398               
P   5.38                                                                        
                                                                                
  73P/Schwassmann Wachmann AG
T 2006 June  9.003 TT                                   MPC                     
q   0.93850              (2000.0)            P               Q                  
n   0.184126       Peri.  198.923        0.028766       +0.982236               
a   3.06003        Node    69.773        0.889723       +0.059392               
e   0.69330        Incl.   11.398        0.455594        0.178005               
P   5.35                                                                        
                                                                                
  73P/Schwassmann Wachmann AH
T 2006 June 8.629 TT                                    MPC                     
q   0.94293              (2000.0)            P               Q                  
n   0.182832       Peri.  197.755        0.032653       +0.982116               
a   3.07445        Node    70.695        0.891511       +0.055248               
e   0.69330        Incl.   11.331        0.451820        0.179990               
P   5.39                                                                        
                                                                                
  73P/Schwassmann Wachmann AI
T 2006 June 8.737 TT                                    MPC                     
q   0.93912              (2000.0)            P               Q                  
n   0.183944       Peri.  198.806        0.028799       +0.982226               
a   3.06205        Node    69.885        0.889910       +0.059311               
e   0.69330        Incl.   11.392        0.455227        0.178084               
P   5.36                                                                        
                                                                                
  73P/Schwassmann Wachmann AJ
T 2006 June 8.692 TT                                    MPC                     
q   0.93912              (2000.0)            P               Q                  
n   0.183944       Peri.  198.772        0.029053       +0.982220               
a   3.06205        Node    69.904        0.889958       +0.059065               
e   0.69330        Incl.   11.391        0.455117        0.178200               
P   5.36                                                                        
                                                                                
  73P/Schwassmann Wachmann AK
T 2006 June 8.472 TT                                    MPC                     
q   0.93912              (2000.0)            P               Q                  
n   0.183944       Peri.  198.780        0.029045       +0.982224               
a   3.06205        Node    69.897        0.889949       +0.059067               
e   0.69330        Incl.   11.390        0.455134        0.178178               
P   5.36                                                                        
                                                                                
  73P/Schwassmann Wachmann AL
T 2006 June 8.456 TT                                    MPC                     
q   0.93912              (2000.0)            P               Q                  
n   0.183944       Peri.  198.804        0.028883       +0.982227               
a   3.06205        Node    69.883        0.889913       +0.059227               
e   0.69330        Incl.   11.391        0.455215        0.178107               
P   5.36                                                                        
                                                                                
  73P/Schwassmann Wachmann AM
T 2006 June 8.267 TT                                    MPC                     
q   0.93912              (2000.0)            P               Q                  
n   0.183944       Peri.  198.815        0.028826       +0.982224               
a   3.06205        Node    69.876        0.889894       +0.059297               
e   0.69330        Incl.   11.394        0.455257        0.178100               
P   5.36                                                                        

  73P/Schwassmann-Wachmann AN
T 2006 June 8.327 TT                                    MPC                     
q   0.93912              (2000.0)            P               Q                  
n   0.183944       Peri.  198.801       -0.028899       +0.982226               
a   3.06205        Node    69.885       -0.889917       +0.059214               
e   0.69330        Incl.   11.392       -0.455206       -0.178118               
P   5.36                                                                        
                                                                                
  73P/Schwassmann-Wachmann AO
T 2006 June 7.769 TT                                    MPC                     
q   0.94685              (2000.0)            P               Q                  
n   0.181698       Peri.  196.024       -0.038508       +0.982272               
a   3.08724        Node    72.052       -0.894324       +0.048024               
e   0.69330        Incl.   11.119       -0.445759       -0.181206               
P   5.42                                                                        

  73P/Schwassmann-Wachmann AP
T 2006 June 6.688 TT                                    MPC
q   0.93912              (2000.0)            P               Q
n   0.183944       Peri.  198.817       -0.028737       +0.982217
a   3.06205        Node    69.878       -0.889884       +0.059403
e   0.69330        Incl.   11.397       -0.455280       -0.178105
P   5.36

  73P/Schwassmann-Wachmann AQ
T 2006 June 7.915 TT                                    MPC                     
q   0.93935              (2000.0)            P               Q                  
n   0.183663       Peri.  198.701       -0.029169       +0.982230               
a   3.06517        Node    69.967       -0.890083       +0.058880               
e   0.69354        Incl.   11.382       -0.454864       -0.178206               
P   5.37                                                                        
                                                                                
